FLOCK 4P-3 (44812 NORAD) Tracking and Keplerian Element Data

This shows tracking and keplerian element data for the satellite.

Feedback or suggestion? Click here.




ElementValue
Catalog44812
NameFLOCK 4P-3
Epoch Orbit865
Epoch Day23.16801059
Epoch Year2020
RAAN84.9889
Inclination97.517
Eccentricity0.0013433
Argument of Perigee45.1093
Mean Anonmoly315.123
Mean Motion15.19545515
Decay Rate6.63E-06
L11 44812U 19081J 20023.16801059 .00000663 00000-0 34413-4 0 9999
L22 44812 97.5170 84.9889 0013433 45.1093 315.1230 15.19545515 8657

Live tracking and technical data element details for FLOCK 4P-3 (NORAD 44812). FLOCK 4P-3 can be tracked NOW for your location showing map with azimuth and elevation plus other details from your city location.

Track the satellite on the map from your city or location and see movement details for azimuth, elevation, latitude, longitude, range, height, and movement on the map or in text.







IsCatalogInMostPopularTable: catalog: 44812, numindb: 11
Update: records affected: 1



GetName: 44812 FLOCK 4P-3

Hit Count: updated at: Fri, 24 Jan 2020 13:26:43 GMT